Location: Unspecified
(52.4292°N, 19.3359°E)
Time: 01:05:36
(UTC+02:00)

Altair - Pass Details

Date: 20 May 2024
Orbit: 1502 x 1682 km, 47.2° (Epoch: 20 June)

Event Time Altitude Azimuth Distance (km) Brightness Sun altitude
Rises 15:08:46 0° 271° (W) 4,907 10.7 46.7°
Reaches altitude 10° 15:11:57 10° 269° (W) 3,931 10.4 46.3°
Maximum altitude 15:21:52 63° 192° (SSW) 1,844 9.1 45.0°
Drops below altitude 10° 15:31:47 10° 115° (ESE) 3,921 9.5 43.7°
Sets 15:34:57 0° 112° (ESE) 4,893 9.8 43.3°
